GFSSGP_con_sbcape_273.txt.gz
CAPE
1405 1173 865 1321 49 10 27 50 419 45 197 248 88 78 83 40 66 43 30 29 211 601 1095 1248 2239 1939 1801 2052 2525 2188 2234 2046 2544 2547 2278 2221 2155 2206 2411 2296 2367 2372 2348 2312 2352 2296 2241 2343 2511
1545 1321 1552 1386 0 0 1 141 729 689 715 323 281 465 236 76 25 68 95 132 343 924 1149 1225 2211 2306 1745 1758 2145 2187 2226 2147 2064 2149 2033 2233 2320 2399 2261 2204 2368 2265 2237 2059 2071 2275 2051 2228 2293
1538 1764 1451 395 5 11 209 546 569 606 519 677 872 872 330 0 46 82 47 249 573 1100 1319 1476 2370 2189 1531 1551 1825 2136 2058 2235 2196 1997 1929 1894 2007 2101 2177 2228 1824 1843 2056 1830 2055 2344 2450 2454 2084
2285 1751 615 15 0 13 399 659 509 640 605 578 463 151 216 8 8 45 141 370 742 1255 1394 2155 1997 1616 1404 1641 1833 2084 2101 2099 2130 2001 1893 1876 2034 1958 2157 2206 1634 1378 2262 2273 2355 2351 2429 2435 2202
1439 811 0 0 8 192 753 791 606 845 838 806 591 481 781 590 73 128 251 487 1009 1280 1312 1837 2241 1627 1615 1928 2318 1951 1842 1972 2038 2025 1927 1973 2262 1839 1780 2059 1567 1289 1464 2030 2221 2272 1981 1749 1731
477 11 0 0 58 69 924 897 935 963 869 635 584 818 867 198 48 220 524 947 1506 1284 1100 1600 1761 1901 1726 2332 2447 2040 1957 1965 1691 1679 2090 1957 1763 1707 1746 1922 1817 1421 1041 1396 2269 1750 1040 831 1261
236 3 1 14 71 180 904 672 708 729 715 701 593 762 870 766 397 637 1335 1415 1372 1208 1227 1583 1645 2289 2412 2054 2159 2094 1885 1822 1954 2156 1789 1994 1779 1776 1752 1926 1747 1811 1944 1702 1301 1133 1827 1898 1943
276 0 21 3 57 95 909 1099 782 842 763 566 536 774 890 772 981 1120 1469 1426 1334 1167 1419 1519 1599 1706 1610 1796 1997 1972 1805 1684 2213 1892 1646 1544 1481 1482 1533 1611 1563 1550 1428 1545 1478 1551 1892 1747 1560
0 3 18 100 123 227 957 1108 981 988 717 908 671 550 801 947 684 703 992 1049 1038 1209 1298 1359 1357 1408 1427 1732 1618 1804 1905 1721 1791 941 918 797 7 85 218 434 1131 1159 1047 1316 1282 1282 1261 1254 1336
0 0 0 38 134 523 1146 1031 877 867 840 559 517 673 868 893 622 572 769 918 935 1210 1241 1310 1255 1316 1315 1763 1268 1176 1260 1175 580 253 114 7 0 0 0 105 244 402 631 813 993 1211 1303 1258 782
0 0 0 3 226 969 1161 1024 669 752 626 434 532 663 737 698 738 566 499 788 789 1045 1017 1161 1152 1100 1135 1429 887 639 474 584 220 111 17 6 0 0 0 0 6 1 35 0 77 110 92 186 722
8 0 0 60 286 994 1132 1150 658 855 632 718 709 658 646 545 495 506 368 478 417 602 724 808 910 922 1028 1072 468 295 225 195 211 123 17 0 0 0 0 0 0 0 0 0 0 0 0 0 164
0 2 0 44 257 714 1209 1248 1327 1030 819 989 905 720 606 405 173 92 357 208 152 222 639 691 838 713 838 1012 431 217 269 147 85 45 15 0 0 0 0 0 0 0 0 0 0 0 8 116 91
0 32 10 106 347 946 1363 1245 1200 1049 880 1039 997 784 650 413 161 10 0 0 0 120 496 571 705 563 636 791 240 64 17 64 104 1 0 7 0 0 0 0 0 0 0 0 0 28 82 53 130
0 10 46 99 378 1072 1154 981 1157 1051 855 913 936 817 734 659 462 242 202 55 31 159 209 400 419 449 506 425 139 58 14 16 110 64 0 0 0 0 0 0 6 3 20 68 102 71 108 74 70
0 0 99 146 408 922 71 514 1110 924 796 855 860 801 878 795 736 439 312 187 143 98 145 200 339 419 424 348 93 26 19 2 14 95 44 0 0 0 0 0 5 14 24 103 147 132 111 74 62
0 0 0 169 322 389 120 428 1073 926 792 781 824 792 817 769 718 627 319 195 55 34 125 253 324 403 384 238 169 56 52 11 4 93 95 29 27 0 0 0 2 34 83 108 149 207 162 140 96
0 0 0 144 229 242 266 236 1011 929 826 824 773 564 808 749 604 578 426 226 82 54 245 320 456 516 322 211 145 143 116 151 94 71 63 72 21 26 0 0 1 12 71 71 132 116 72 139 134
0 0 0 0 58 149 173 204 892 812 738 686 586 389 260 617 622 396 269 232 155 71 135 288 348 393 341 283 276 289 236 300 185 156 91 18 53 45 0 0 0 0 16 84 91 102 82 93 156
0 0 0 0 10 46 6 126 765 710 669 642 360 240 441 423 287 301 254 220 231 180 98 162 216 259 235 517 509 580 505 597 553 416 352 445 339 143 118 69 86 72 113 100 36 35 86 118 94
0 0 0 0 2 2 31 137 599 617 579 500 377 455 484 422 470 479 492 276 156 216 337 219 166 256 333 351 797 1127 877 912 941 789 725 838 616 395 218 134 160 299 327 369 114 44 47 120 83
0 0 0 0 1 5 1 21 242 215 367 390 569 534 439 745 896 690 532 427 96 114 249 512 479 574 577 737 917 1171 1199 1172 1262 1299 1231 998 709 648 694 478 633 462 506 510 410 176 136 73 81
0 0 0 0 0 0 0 10 58 0 70 416 595 612 465 496 752 381 750 342 158 493 303 570 894 838 1006 1142 1152 1109 1209 1535 1657 1733 1621 1234 866 932 934 582 488 603 621 644 479 434 268 167 292
0 0 0 0 0 0 0 6 13 8 132 186 586 667 214 194 165 21 3 28 212 964 408 1344 1619 2169 1084 1342 1586 1741 2427 2198 1833 1544 1381 1019 782 812 884 1164 879 506 531 486 481 509 384 489 473
0 0 0 0 0 0 0 0 12 0 1 102 877 623 2 0 2 14 15 2 488 264 575 1557 2067 2629 2571 1652 1900 2202 2648 1958 1671 1373 977 1034 779 523 920 881 991 686 519 516 418 356 563 514 451
0 0 0 0 0 0 0 9 117 32 139 346 491 169 3 6 23 47 84 113 414 8 10 0 0 42 1832 2211 2063 1930 1842 1466 993 843 761 643 656 645 685 784 745 871 709 747 513 258 453 324 305
0 0 0 0 0 0 0 93 181 444 460 407 299 212 222 136 75 76 485 360 252 16 0 0 5 4 51 521 361 198 320 233 147 111 138 75 9 143 76 82 147 376 799 808 805 812 791 542 345
0 0 0 0 1 31 132 125 21 550 680 484 391 343 309 311 170 209 708 322 141 0 0 0 1 75 134 15 59 36 14 0 0 0 0 0 0 0 0 0 0 0 0 19 209 531 549 555 365
0 0 0 0 0 33 120 95 4 467 637 542 473 274 104 943 754 952 232 0 5 0 0 0 14 130 0 0 0 0 0 0 0 0 0 0 0 0 0 0 0 0 0 0 0 0 170 86 364
0 0 0 0 0 1 4 12 7 278 391 270 426 100 545 541 453 298 79 104 37 53 130 79 2 0 0 0 0 0 0 0 0 0 0 0 0 0 0 0 0 0 0 0 1 0 0 0 0

GFSSGP_con_sbcape_276.txt.gz
CAPE
1164 919 983 1316 15 0 0 128 247 4 29 83 7 18 24 17 65 10 14 42 310 699 1118 1505 2377 2272 2261 2503 2497 2196 2192 2154 2647 2654 2490 2083 2101 2430 2285 2235 2380 2177 2180 1869 2138 2061 1927 2056 1999
1166 1034 1471 922 0 0 0 107 313 466 301 225 454 227 71 19 38 27 45 127 564 907 1098 1530 2347 2451 2306 2247 2441 2392 1948 2135 2271 2156 2228 2031 2252 2417 2497 2552 2388 2279 2107 2104 2069 2100 2240 2102 2235
1267 1824 1421 15 0 2 158 562 687 641 340 681 782 361 28 18 46 52 75 302 868 1005 1066 1616 2438 2374 2133 2297 2299 2289 2066 1994 2064 2053 2239 2261 2362 2291 2343 2238 2397 2189 1883 1778 2251 2150 2155 1848 2005
2110 1793 283 0 2 10 471 522 599 583 579 316 16 67 7 13 51 58 253 546 1041 1145 1192 2015 1937 1619 1630 2023 2194 2111 2175 2165 2116 2032 2029 2159 2240 2256 2433 1919 1755 2144 1876 2012 2171 2192 2310 1900 1871
1364 169 0 0 31 542 770 635 653 806 814 608 380 513 485 259 77 186 327 756 1168 1161 1454 1706 2256 1783 1527 1682 1980 1953 1964 2107 2129 2025 2054 2167 2102 2206 2367 1755 1230 2052 2216 2138 2095 2145 1966 1757 1682
151 0 0 0 68 524 831 657 966 974 684 417 523 557 473 64 137 216 430 897 1265 1231 1418 1427 1672 1601 1898 2112 2154 1958 1925 2021 2062 1976 2032 2441 2028 2036 2211 1731 1390 1193 1506 1890 2122 1503 1130 1241 1258
89 0 0 0 110 792 928 652 820 697 666 495 702 637 429 53 165 427 856 1324 1325 1009 1370 1125 1127 1175 1627 2295 2254 2005 1950 1831 1723 2296 2116 2010 1883 1875 1979 2006 1786 1328 963 1325 1551 1334 1579 1659 1814
136 0 0 0 44 243 794 859 723 824 652 532 545 466 376 407 377 1328 1335 1267 1153 1078 1287 1304 1404 1887 1724 1924 2254 2104 1897 1768 2176 1922 2132 1986 1815 1928 2006 2085 1901 2027 2168 1811 1582 1520 1863 1812 1571
0 0 4 71 66 473 960 784 926 764 614 842 594 605 611 830 1115 1343 1402 1245 1079 1114 1300 1423 1496 1403 1390 1542 1569 1926 1711 1682 2138 1516 1601 1281 202 373 554 1162 1599 1514 1353 1453 1427 1478 1382 1255 1296
0 8 15 18 110 936 1126 923 827 927 681 507 813 885 914 824 934 914 875 807 923 934 1227 1234 1197 1259 1237 1801 1247 1194 1273 1336 1093 501 303 10 0 6 17 360 1114 1055 995 1209 1216 1060 1080 1166 910
0 27 0 15 822 1089 1017 848 729 737 508 372 611 803 819 647 762 861 877 851 719 833 1084 1217 1040 1010 1131 1449 874 812 793 766 405 146 33 0 0 0 1 0 16 7 125 14 102 161 163 167 530
18 5 2 779 1001 1070 1142 765 665 694 375 393 653 809 762 620 584 594 732 694 579 784 793 957 949 982 960 903 850 700 513 368 405 148 36 8 0 0 0 0 0 0 0 0 0 0 0 0 48
2 6 15 421 934 1022 1138 1018 1041 638 628 525 521 629 606 604 549 483 413 513 320 475 604 584 767 866 782 862 701 244 269 292 312 134 36 1 0 0 0 0 0 0 0 0 0 0 0 18 220
0 15 49 573 916 1172 1243 1163 946 748 829 735 584 498 447 396 293 64 106 174 136 169 366 402 661 806 856 923 599 175 263 197 121 63 26 13 0 0 0 0 0 0 0 0 0 3 112 166 166
0 15 49 408 780 1104 1028 936 993 755 958 907 752 570 538 424 182 7 0 13 4 50 164 334 523 593 680 680 538 87 17 21 74 73 8 0 0 0 0 0 0 5 0 8 69 123 171 167 176
0 1 41 132 663 1063 37 386 1004 812 894 890 850 727 706 570 484 262 72 8 0 0 135 175 474 449 539 526 276 83 40 2 0 13 29 0 0 0 0 0 1 4 36 64 148 167 145 124 169
0 0 2 100 303 847 517 370 1013 870 830 797 807 749 774 662 565 500 275 199 58 27 70 104 205 281 409 409 242 45 14 0 0 0 18 23 4 1 0 0 0 11 49 128 161 270 165 173 168
0 0 0 0 109 462 565 166 1006 860 759 739 732 710 705 665 630 604 402 200 89 4 4 63 93 159 255 200 143 99 89 80 41 7 19 59 45 39 21 7 4 17 56 146 187 203 218 347 270
0 0 0 0 0 365 279 95 905 921 762 644 642 677 593 722 731 423 397 262 153 58 11 131 154 196 141 114 105 142 226 213 133 92 71 98 79 36 30 40 59 24 67 83 123 109 105 51 181
0 0 0 0 0 232 95 80 805 916 793 682 629 652 482 411 396 286 249 183 201 131 57 137 162 163 211 197 152 208 185 207 246 273 218 239 213 256 97 76 62 31 29 71 128 145 67 104 152
0 0 0 0 0 0 8 57 734 728 693 567 413 425 267 260 310 482 245 121 129 171 85 103 110 116 101 277 454 423 431 480 671 362 241 338 342 424 514 399 195 137 89 203 169 183 226 290 124
0 0 0 0 0 1 0 0 59 461 595 541 436 277 391 624 637 651 553 284 136 128 250 320 157 93 121 160 405 756 804 808 930 1071 1301 838 397 303 324 303 328 306 228 222 368 325 281 231 259
0 0 0 0 0 0 0 0 0 1 361 492 401 333 703 777 279 462 242 226 141 505 314 290 420 295 457 275 367 426 568 632 1152 1335 1413 1132 770 625 863 580 545 448 643 323 256 340 253 216 287
0 0 0 0 0 0 0 0 0 37 5 26 471 452 483 468 417 25 0 72 321 377 316 119 343 261 577 366 499 563 717 1105 1489 972 785 604 634 509 621 781 896 546 480 450 420 355 402 361 213
0 0 0 0 0 0 0 0 0 0 0 0 343 482 402 263 150 41 0 59 46 35 0 0 0 1 3 51 33 557 1411 1155 746 610 512 381 349 336 304 489 672 820 495 510 574 496 556 575 430
0 0 0 0 0 0 0 0 21 1 184 280 638 126 67 85 37 27 21 135 12 109 28 33 0 0 0 6 0 96 286 182 89 52 17 2 30 78 10 31 119 217 508 592 584 594 621 804 744
0 0 0 0 0 0 0 18 89 64 451 390 315 150 44 6 18 80 427 247 11 13 54 130 16 0 12 27 11 5 1 0 0 0 0 0 2 0 0 0 0 18 23 30 219 636 693 616 702
0 0 0 0 0 0 8 24 99 63 311 384 334 328 279 236 112 146 406 236 18 0 7 20 0 39 29 14 1 1 0 0 0 0 0 0 0 0 0 0 0 0 0 0 1 31 190 440 627
0 0 0 0 0 0 14 10 0 29 372 393 371 318 270 621 645 551 0 0 0 0 0 0 0 0 1 0 0 0 0 0 0 0 0 0 0 0 0 0 0 0 0 0 1 1 2 2 12
0 0 0 0 0 0 0 1 0 105 557 487 477 678 652 552 411 90 128 64 56 53 16 3 0 0 0 0 0 0 0 0 0 0 0 0 0 0 0 0 0 0 0 0 0 0 0 0 0

GFSSGP_con_sbcape_279.txt.gz
CAPE
1246 969 1058 1539 410 200 156 304 38 29 34 60 50 74 165 144 153 450 173 305 759 684 683 1424 2158 2378 1882 2183 2596 2665 2554 2395 2843 2810 2532 2104 2248 2290 2242 2140 2007 1901 2104 2157 2055 1818 1978 1972 2272
1137 1055 1677 1236 165 0 307 549 318 696 183 135 360 212 136 165 137 203 425 659 879 968 1105 1556 2525 2659 1986 2021 2250 2477 1902 1926 2204 2291 2146 2081 2077 2096 1905 2311 2166 2142 2093 2111 2040 2068 2106 2069 2048
1257 1920 1764 318 174 100 335 779 612 244 286 547 469 140 79 137 157 315 463 861 1185 1380 1405 1480 2023 2796 2169 2205 2005 2187 2129 2072 2089 2137 2107 2121 1967 2025 2325 2255 2236 2180 2103 2018 1974 2036 2012 2156 1926
2310 2247 162 249 310 350 602 770 554 690 585 160 170 225 145 134 173 313 795 986 1242 1477 1421 1771 2114 2293 2282 2326 2196 2022 1935 1987 2045 2188 2214 2281 2195 2195 2007 2341 2121 1912 1834 2148 2125 1928 1891 1873 1782
1907 409 225 314 538 811 793 795 847 994 857 362 238 402 230 208 229 657 971 1107 1263 1501 1707 1416 2344 1870 2067 2188 2095 2135 2042 2020 2033 2046 2195 2226 2209 2115 1999 1506 2098 1833 2050 2204 2188 2207 1953 1800 1693
397 0 127 266 446 957 993 804 1169 975 748 482 460 457 518 323 476 740 970 1239 1396 1494 1597 1391 1688 1661 1620 1847 1995 1915 2047 2113 2069 2018 2104 2341 2142 2129 2041 1318 1711 2342 2208 2138 1985 1779 1733 1660 1566
310 141 40 145 499 1060 1171 1050 989 751 490 439 459 403 321 373 505 605 966 1243 1524 1642 1501 1271 1149 1318 1899 2160 1964 1952 1979 1942 1799 2085 2007 2406 2111 2140 2094 1641 1266 1305 1729 2089 1484 909 1129 1251 1545
296 28 68 74 282 823 969 698 790 800 669 629 391 324 302 462 527 760 1130 1465 1432 1724 1373 1187 1321 1003 1375 2247 2130 1979 1979 1789 1873 2090 2051 2010 2001 1897 2002 1892 1812 1172 968 1427 1233 1469 1469 1679 1748
19 117 209 130 273 1022 852 913 1060 653 511 841 824 261 218 411 787 1108 1157 1332 1242 1104 1059 545 928 1668 2293 2192 2150 2143 1914 1787 2307 1622 1955 1892 849 1325 1076 1588 1576 1521 1618 1538 1434 1519 1821 1538 1329
10 185 186 143 511 1072 975 1147 997 855 988 1059 982 653 424 794 1120 1224 1104 906 759 386 648 551 1776 2166 2002 1645 1935 1982 1585 1301 2085 1795 1542 670 503 603 355 584 1319 1255 1231 1447 1395 1343 1207 1009 736
2 120 11 263 1007 1245 1199 937 920 837 816 872 823 809 814 1007 1171 1228 936 913 297 148 402 1313 1926 2078 1796 1776 2136 2110 1492 1377 1699 883 645 400 99 28 32 162 903 1217 782 916 1084 1046 908 1141 1310
45 15 143 1219 1256 1196 1108 842 912 774 679 557 930 796 936 1150 1375 1285 1165 1172 891 376 293 937 1595 2088 2115 2286 2100 2372 2443 2162 1767 1376 683 209 22 11 21 14 185 547 443 448 410 267 321 252 140
33 33 516 1132 1139 1246 957 1029 775 736 774 942 985 963 1028 1098 1213 1252 1218 1220 1195 850 423 980 1464 1694 1705 939 383 1456 2050 2076 1679 1436 669 122 83 40 12 5 13 26 205 223 250 109 79 57 109
42 301 798 1086 1234 1221 723 944 465 820 691 922 963 944 1007 1050 1119 1147 1127 1209 1142 827 502 467 963 1359 1106 1158 309 920 1306 1236 1208 1177 1193 157 133 68 30 59 34 29 0 10 38 47 62 161 339
48 393 707 1160 1214 1225 1067 763 403 908 667 739 805 838 834 899 910 953 929 999 1066 1040 892 1080 1007 1037 1445 1518 1129 1310 1297 1205 1148 1213 1075 928 870 602 90 44 21 11 94 63 84 159 234 407 537
41 168 266 689 1049 1142 402 549 860 977 839 718 669 715 726 733 690 721 666 589 564 744 894 1071 1009 1018 1208 1346 1523 1425 1384 1069 689 688 457 304 348 449 503 319 162 82 45 93 56 164 210 180 242
0 169 146 281 711 930 903 542 767 917 901 826 882 767 769 821 872 863 721 567 508 460 574 831 1033 1112 1376 1620 1618 1473 1334 877 183 123 122 212 313 396 477 482 557 304 305 381 586 310 339 219 321
1 0 0 4 326 700 981 604 985 1020 883 919 995 1091 1094 1068 1055 1057 1091 972 804 618 444 462 616 1074 1361 1498 1611 1338 730 872 55 78 89 111 274 296 419 444 410 594 540 586 552 586 633 901 793
0 0 0 0 0 457 742 762 1114 1013 987 949 1054 1096 1046 1116 1117 1110 1170 1149 980 869 781 820 731 971 1150 1157 1185 1233 1193 1290 662 295 364 498 357 166 237 188 479 663 484 619 795 819 665 301 485
0 0 0 0 6 155 422 671 780 1120 1089 976 936 1073 1121 1130 1192 1087 919 1036 1076 1134 937 953 1057 1104 1146 1080 1287 1314 1426 1363 1477 1177 1027 783 816 591 808 356 588 454 350 512 840 675 530 527 381
0 0 0 0 53 103 345 444 716 1015 1203 1086 1030 1046 1103 1139 1050 1114 741 782 799 920 989 937 1106 1115 1124 1165 1383 1435 1518 1785 2068 1582 1023 901 1041 1238 1165 1010 1003 618 357 116 259 464 368 624 914
0 0 0 0 0 0 34 208 194 883 1180 1215 1122 1063 960 887 972 1177 735 931 817 698 728 976 908 906 864 972 1207 1307 1491 2036 2343 1955 2351 3090 1498 1027 1013 1238 1067 726 545 412 507 428 572 615 1266
0 0 0 0 0 0 73 112 115 308 886 1148 1144 1077 838 1141 1076 1070 492 645 1211 1124 1021 1013 1523 1484 1164 936 1102 1039 1101 1708 1988 2728 2406 2504 2132 1668 1891 1847 1183 648 700 365 435 518 665 891 1136
0 0 0 0 0 13 0 89 29 774 782 608 896 873 921 1057 1055 439 540 730 1166 712 690 918 1408 670 374 329 134 76 159 1140 2248 2517 2486 2045 1723 1524 1563 1911 2088 1586 962 719 760 719 738 794 969
0 0 2 2 6 9 0 26 69 270 191 375 331 552 1016 1007 792 289 392 472 719 240 173 130 235 135 366 107 102 28 72 857 1046 1010 982 747 496 585 533 898 1296 1675 1976 1900 1730 1381 1122 808 788
0 0 0 0 5 2 0 165 231 410 752 804 991 631 963 991 787 349 179 496 728 89 117 92 28 95 27 175 52 32 0 73 112 21 146 187 191 63 28 174 289 423 516 886 1543 1746 1620 1250 1209
0 0 0 0 0 1 90 295 447 442 780 1010 908 781 968 876 736 584 456 506 354 604 507 511 219 349 282 87 3 0 0 0 2 2 4 3 0 0 0 0 0 0 8 274 637 846 1279 1252 1393
0 0 0 0 16 15 180 417 339 724 704 1014 1068 910 616 586 571 633 814 992 357 230 240 130 303 192 38 0 0 0 1 0 0 0 0 0 0 0 0 0 0 0 0 11 55 79 143 391 875
0 0 0 0 0 22 59 278 440 551 718 1069 1062 1000 957 733 580 618 595 438 182 78 212 223 67 11 1 0 0 0 0 0 0 0 0 1 0 2 0 0 0 0 0 1 0 0 0 0 0
0 0 0 0 7 37 124 73 221 434 727 1044 1030 1091 1127 1033 1045 608 219 125 144 153 229 120 4 0 0 0 0 0 0 0 0 1 1 2 1 1 3 4 2 1 3 5 4 2 3 1 0

GFSSGP_con_sbcape_285.txt.gz
CAPE
1236 1626 2230 2241 2193 241 234 161 346 302 535 527 524 554 849 817 1018 841 48 186 150 244 358 825 1895 1846 1939 2153 2160 1965 1907 1423 1614 1888 2091 1891 1893 1785 2148 1930 2000 1967 2077 2178 2204 2229 2351 2377 2218
2479 2255 2573 2858 1082 416 349 291 422 497 626 608 617 628 863 977 997 759 247 180 250 368 768 743 2123 2166 1939 2134 2175 2194 1668 1633 1910 2033 2012 2073 1959 2037 1860 1882 2134 2099 2003 2057 2077 2186 2485 2339 2272
3038 2434 3052 322 512 589 562 375 424 512 683 736 694 781 976 889 954 883 530 371 578 869 1279 1430 2064 2401 1869 1931 2044 2009 1920 1894 2022 2020 2143 1990 2001 1890 2040 2075 2102 2039 2144 2049 1926 2276 2026 2129 2248
3211 3601 1952 500 517 590 596 530 454 569 726 740 869 1001 1002 963 1203 1042 1083 917 1049 1161 1240 1533 2081 1915 1873 1941 1998 1954 1908 1938 1888 1861 1937 1875 1964 1951 2119 1988 2089 1988 2052 2016 2000 1973 2002 1896 1865
2992 1885 343 475 469 489 616 609 562 561 630 734 936 1119 1053 1025 1209 1425 1372 950 1217 1316 1313 1613 2766 2424 1890 1939 1861 2054 1965 2039 2228 2196 1977 2014 1858 1963 2013 1868 1863 1828 1955 1821 1928 2095 2002 1736 1870
1946 144 345 509 556 598 677 642 471 634 697 922 1024 1252 1031 1131 1174 1362 1399 1389 1288 1205 945 1461 2384 2445 2433 2060 1916 1970 1903 1957 1801 1964 1710 1869 1389 1291 1544 1738 1666 1609 1870 1878 1944 1818 1796 1709 1763
483 150 233 209 513 730 697 658 459 595 710 931 1016 1270 1215 950 1139 1106 1284 1279 1221 1047 719 735 1015 2009 2125 1962 1978 1932 1958 2065 1887 1832 1830 1641 1154 1344 1050 1094 1041 1383 1652 1670 1732 1907 1788 1656 1502
782 89 74 157 422 809 659 732 844 517 804 762 883 1084 1294 1090 984 1142 1296 1264 1379 1290 934 798 755 839 1233 1282 1786 1719 1723 1748 1570 1854 1834 1384 1205 1128 1084 736 973 1252 1261 1531 1185 1353 1416 1403 1594
369 189 366 264 418 730 813 866 765 579 697 842 863 949 1153 1098 1285 1344 1319 1541 1323 1114 517 473 442 459 415 1106 1729 1861 1817 1534 1759 1587 2124 1555 957 112 84 133 578 757 1066 1489 1192 1071 1246 1519 1651
78 259 489 419 577 662 647 764 721 771 797 845 729 988 1005 903 983 1111 1083 1153 985 672 314 417 344 288 586 1156 2521 1569 1651 931 1297 1798 1782 1133 787 603 540 308 589 330 247 801 1164 1148 1597 1369 241
77 217 547 661 740 766 604 596 699 659 782 806 789 961 861 871 886 929 877 617 342 354 228 210 444 793 1360 2032 889 659 1169 692 1865 1481 952 413 522 667 157 153 197 443 471 254 852 1070 642 161 172
85 352 514 780 724 568 607 235 228 549 492 767 770 832 870 862 795 634 464 361 105 76 139 244 700 1004 684 1798 964 1199 397 1244 1487 1309 1090 1068 288 225 251 146 60 64 191 346 429 210 556 1140 479
97 530 561 707 667 626 427 312 370 509 681 819 708 728 842 796 779 633 217 66 64 17 126 486 811 1474 1809 1754 869 1023 1054 311 1112 1255 993 375 579 590 388 978 159 53 0 339 509 465 804 383 114
244 472 663 815 801 631 601 553 420 560 692 798 758 940 934 867 882 829 660 719 502 172 91 263 975 2129 1352 1255 1159 984 1162 492 814 1419 1412 1465 1044 978 771 769 721 733 216 78 8 1022 902 643 233
228 424 659 757 864 740 890 500 574 610 691 813 913 945 951 964 887 921 941 915 883 850 610 541 1027 1536 1578 1290 1272 1814 1875 2091 1568 1592 709 1082 979 1137 907 1540 2002 878 333 85 0 529 537 373 91
150 203 507 556 875 1003 576 998 669 725 715 782 917 956 892 878 857 801 814 863 864 983 1075 892 819 1087 1733 1791 1841 1961 2448 1911 1883 1458 1353 1260 1367 1256 1631 1699 1977 1225 1334 308 87 35 92 166 113
62 0 232 431 678 900 959 1281 973 799 767 666 708 833 886 911 893 878 827 789 902 940 1111 1207 1317 1670 2048 1994 2836 2322 2182 2014 974 45 85 253 869 1071 1528 1443 1872 1736 2222 1487 1089 616 215 435 66
127 242 93 138 219 487 952 1126 1302 955 811 755 614 626 750 769 847 890 832 753 711 833 1173 1479 1574 1847 1908 2753 2889 2282 2074 2973 1785 946 495 573 644 432 586 233 963 1518 1481 1390 1532 1652 1428 1168 1053
173 148 129 111 1 103 370 582 1281 1191 1012 870 721 589 634 714 729 787 810 681 772 856 1058 1455 1563 2173 2328 2329 2511 3246 3182 2035 2273 1861 1597 1422 990 1065 1257 527 445 721 1252 1706 1744 1873 1792 1947 1662
64 174 190 95 23 151 295 321 505 1415 1206 1069 918 608 621 716 759 890 895 999 889 1173 1346 1671 1932 2206 2528 2279 2297 2108 2462 1522 1656 1847 2088 2130 1987 2168 2131 1314 2056 2237 2313 1817 1434 1361 2013 2004 2009
121 203 231 90 61 127 383 191 8 562 1376 1190 1122 908 535 794 955 1040 861 1084 1151 1433 1637 2163 2596 2956 2768 2334 2475 2437 2227 2255 1857 2375 2310 2402 2186 2328 2611 2505 2825 2657 2417 2134 1414 809 515 372 1896
132 120 55 29 130 214 192 293 360 132 1428 1376 1239 1142 919 709 1027 853 1394 1266 647 1487 1882 2527 2960 3212 2857 2693 2700 2917 2389 2442 2294 2284 2143 3204 2727 2545 2394 2227 2233 2249 2180 2248 1767 1552 504 1560 1546
130 60 20 19 95 149 259 304 380 330 1106 1396 1386 1257 1111 972 1100 1092 1380 456 955 1270 1880 2593 2911 2926 3088 3053 2327 2435 2176 2708 3454 2302 2682 2797 2622 2422 2335 2785 2465 2777 2193 2021 2065 1862 1726 1923 1567
28 2 8 0 83 196 133 279 292 178 490 859 1338 1367 1238 1181 1260 1457 1257 897 1048 1534 2021 2377 2537 2190 2376 2496 1698 1552 1805 2268 2330 2555 1390 1605 1296 1775 1884 1398 2172 2284 2510 2492 2524 2326 1842 1919 1821
3 4 17 50 133 172 123 91 240 434 632 659 775 1431 1385 1402 1535 1944 1711 1644 1622 1827 2075 2293 2309 2378 2149 890 835 1009 1742 1816 1980 1639 1426 1325 862 712 608 584 841 852 1267 1450 1879 2019 1979 2001 1612
0 0 7 78 126 270 29 75 367 526 1063 944 874 1293 1343 1515 1818 2118 1928 1781 1572 1895 2080 2127 2233 1670 1268 1412 1231 999 905 1000 858 961 794 746 561 386 185 120 159 190 218 367 790 1272 1486 1380 1494
0 0 0 1 43 126 224 23 48 794 1224 1259 1264 1178 1488 1592 2027 2126 1717 1690 1557 1600 1640 1769 1830 1692 1329 1323 1239 967 725 726 546 374 327 149 36 0 0 0 0 0 0 21 86 168 410 453 736
0 0 0 0 25 111 196 165 284 387 1072 1507 1364 1498 1812 1956 2063 1870 1638 1816 1692 1941 1800 1663 1683 1245 1021 861 969 644 468 275 118 37 0 0 0 0 0 1 1 2 4 6 6 13 99 20 39
0 0 0 1 12 61 139 268 123 16 648 1545 1641 1811 2009 2033 1941 1753 1791 1784 1743 1833 1669 1222 969 780 627 449 229 101 13 0 0 0 0 0 1 4 8 10 9 9 19 17 22 16 16 13 16
0 0 0 0 0 136 264 197 14 29 333 1445 1665 2005 2133 2015 1892 1949 2050 1738 1526 1622 1203 885 629 461 317 171 36 0 0 0 0 0 0 1 5 10 13 18 18 21 14 16 14 9 15 21 25

GFSSGP_con_sbcape_291.txt.gz
CAPE
910 731 790 1158 1619 45 154 237 289 343 588 517 39 27 0 0 0 0 10 5 23 102 519 1096 2517 2275 2103 2062 1931 1411 1408 1817 1818 1874 1633 1572 1820 1683 1839 1808 1835 2139 1972 1800 2011 1987 2263 2319 2249
695 799 1582 2578 232 1 194 269 269 424 583 306 86 61 0 0 0 21 9 87 129 267 419 1099 2568 2625 2246 2045 2098 1778 1716 1824 1821 1948 1848 1723 1698 1585 1786 1808 1638 1869 1907 2014 2094 2249 2099 2043 2053
1503 1912 2459 1921 125 58 216 422 497 610 794 740 597 384 168 0 0 0 6 24 132 250 341 1390 2702 2612 2264 1805 1994 1923 1890 1875 1649 1897 1869 1816 1763 1686 1923 1731 1678 1730 1772 2099 2239 2240 2238 2234 2201
2455 2408 2704 788 251 201 263 392 413 770 537 655 635 507 284 0 3 26 28 36 138 354 835 2151 2391 2247 2364 2235 2212 1879 1865 1950 1871 1785 1668 1190 1851 1763 1822 1621 1665 1671 1737 2127 2007 1898 2038 1809 1872
2438 2445 1373 72 120 5 309 352 722 744 674 713 733 507 21 6 35 33 43 140 183 643 1065 1625 2631 2509 2418 2252 2078 1964 1814 1735 1704 1656 1512 1421 1830 1626 1587 1580 1678 1627 1762 1807 1950 1694 1711 1765 1747
2826 2165 261 156 261 467 374 118 703 783 846 1031 899 667 576 92 47 104 266 441 863 998 1091 1434 1964 2480 2551 1997 2121 2195 1737 1682 2000 1539 1445 1318 903 1492 1550 1619 1653 1571 1579 1962 1793 1697 1550 1694 1474
2749 864 229 242 349 342 504 345 479 429 159 642 886 896 792 257 19 161 467 704 903 840 1049 1343 1445 1588 2032 2688 1982 1822 1812 1672 2063 1582 1479 1798 874 1216 1569 1224 1432 1636 1602 1746 1561 1635 1497 1447 1208
192 160 277 290 378 278 421 374 642 119 34 614 672 777 711 502 271 477 721 337 133 646 870 995 1572 1791 1660 1939 1672 1838 1883 1675 1605 1562 1272 1737 1158 336 629 1078 1110 1244 1351 1184 1582 1554 1588 1438 1415
101 178 197 236 537 656 230 194 110 639 596 618 706 703 852 610 709 825 821 205 217 603 234 617 1379 1469 1306 1342 1558 2209 1952 1707 1839 1561 1581 1890 548 266 330 347 835 691 1002 1246 1343 1404 1576 1448 1426
181 214 299 285 317 438 289 320 361 319 642 648 645 899 986 887 907 825 768 510 153 67 542 313 881 1179 767 1112 1031 1138 1071 1115 1374 1013 1403 646 255 22 105 146 584 959 1266 1377 1364 1098 940 936 841
207 256 255 346 435 524 496 496 349 403 745 561 610 681 789 785 772 802 753 798 121 37 133 391 267 388 759 510 112 164 1090 753 1026 1075 962 576 694 233 17 6 60 127 156 194 248 946 631 209 100
315 333 355 466 368 43 23 538 418 298 603 569 474 529 613 635 745 831 733 632 651 71 183 195 471 540 411 236 350 196 515 764 821 759 844 647 242 87 80 51 56 54 95 36 43 110 142 71 24
30 254 341 495 181 93 147 116 239 453 592 431 354 594 617 596 603 598 733 404 50 340 363 349 286 330 286 181 145 406 548 765 382 800 832 311 346 55 31 33 8 29 72 27 105 91 74 23 8
153 325 3 346 360 259 320 361 346 454 482 491 376 224 315 559 527 396 242 27 21 24 332 1377 848 763 575 710 453 801 888 567 125 696 528 419 233 83 121 102 36 1 10 9 76 60 35 51 48
4 108 1 51 214 22 541 538 454 429 505 406 382 275 213 178 221 61 7 0 0 7 660 987 992 721 606 496 790 599 814 816 783 497 632 427 281 185 237 214 216 165 217 54 6 13 27 167 201
34 15 8 137 394 122 263 469 490 449 469 422 412 337 271 248 135 52 17 0 0 0 299 921 1081 712 737 827 893 913 703 777 991 1055 337 252 262 557 743 649 575 545 298 145 55 39 0 2 22
3 62 18 130 178 187 163 0 144 524 454 443 454 362 302 312 176 171 224 260 86 102 37 161 742 765 745 1022 1332 971 914 967 972 55 148 179 277 640 819 570 554 722 553 547 485 161 59 0 0
4 28 104 127 1 129 618 796 858 542 510 560 559 490 391 364 328 241 492 289 104 111 379 490 874 1030 1150 149 3 241 786 1325 9 3 100 176 336 310 136 308 215 631 758 764 755 594 153 0 49
0 0 41 7 50 223 360 0 65 965 264 544 535 528 492 398 219 239 248 498 492 264 803 570 1317 972 55 0 0 296 907 1099 1245 782 296 215 339 223 148 389 557 286 279 562 602 636 619 515 301
12 52 6 178 187 144 221 0 0 505 136 418 408 480 442 395 356 361 211 509 230 595 753 645 838 1173 852 602 966 1240 1231 1388 1387 1140 1361 434 674 559 922 801 1090 893 896 897 870 938 580 378 277
18 42 43 79 74 45 248 140 0 0 6 276 409 373 385 364 470 431 474 347 130 0 10 267 347 1213 1681 1399 1453 1267 1169 1271 1036 1302 1295 1253 1676 1667 1623 1265 1319 1369 1645 1507 1126 1087 953 280 304
0 4 41 138 25 69 62 168 126 158 392 895 247 299 356 401 501 457 547 420 187 112 361 27 12 37 1841 1662 505 588 556 739 824 1109 700 1274 1612 1873 2070 1680 1824 1672 1579 1388 1090 1037 1050 898 692
0 1 5 17 22 6 2 167 98 30 4 100 0 147 418 497 565 815 740 497 358 175 92 0 23 109 1319 1169 1032 1131 873 284 580 626 267 240 1453 796 853 939 1358 945 655 642 901 989 948 681 755
0 0 0 0 0 0 86 83 82 140 193 125 1 1 54 124 646 656 647 93 17 58 19 113 178 468 1358 915 635 429 323 408 393 96 226 843 599 206 142 120 118 47 40 63 187 105 666 600 470
0 0 0 0 0 0 87 161 101 181 295 51 2 50 115 3 414 649 559 537 348 295 504 825 2007 2000 1111 238 513 102 0 1220 849 945 530 454 386 0 0 0 0 0 0 0 0 0 192 158 130
0 0 0 0 0 13 164 64 132 104 110 51 63 1 207 31 552 475 439 383 1431 2008 2302 2234 1935 1515 1092 918 1008 857 734 717 360 222 25 0 0 0 0 0 0 0 0 0 0 0 0 0 0
0 0 0 0 0 0 50 58 27 129 212 191 34 63 121 608 750 623 511 693 1652 2132 2024 1751 1711 1265 1065 1225 882 772 530 372 0 0 0 0 0 0 0 0 0 0 0 0 0 0 0 0 0
0 0 0 0 0 0 0 62 88 187 92 12 0 508 221 1184 1049 918 1060 1899 1994 2113 1857 1550 1404 1359 1250 1040 751 438 197 0 0 0 0 0 0 0 0 0 0 0 0 0 0 0 0 0 0
0 0 0 0 0 0 0 32 213 82 11 0 0 1148 1311 1507 1482 1685 1878 1646 1653 1588 1350 1286 1256 1079 728 591 478 152 0 0 0 0 0 0 0 0 0 0 0 0 0 0 0 0 0 0 8
0 0 0 0 0 0 0 21 282 25 24 4 176 1396 1621 1897 1830 1697 1643 1669 1391 1315 1138 977 749 620 376 127 2 0 0 0 0 0 0 0 0 0 0 0 0 0 0 0 0 0 0 0 0